If you wish to contribute or participate in the discussions about articles you are invited to join SKYbrary as a registered user

 Actions

Kalaleh Airport

From SKYbrary Wiki

OINE
Airport
ICAO: OINE – IATA: KLM
Summary
Name Kalaleh Airport
Region Middle East
Territory Iran IR.gif
Location Barbar Qaleh, Golestan Province
Serving Kalaleh
Elevation 129.54 m
425 ft129.54 m
Coordinates 37° 22' 59.90" N, 55° 27' 4.91" E
Runways
Designator Length Width Surface ROPS
10/28 2218 m7,276.903 ft
28 m91.864 ft
ASP /


METAR
Observation OINE 170800Z 21004KT CAVOK 25/07 Q1022
Station KALALEH
Date/Time 17 October 2019 08:00:00
Wind direction 210°
Wind speed 04 kts
Lowest cloud amount clouds and visibility OK
Temperature 25°C
Dew point 7°C
Humidity 31%
QNH 1022 hPa
Weather condition n/a

Airport 4km2.16 nm
4,000 m
13,123.36 ft
west of the city of Kalaleh, Iran.

Climatology

Cold desert climate (Köppen climate classification Bwk).

Maps

Terrain

Loading map...

Airport Layout

Loading map...


Accidents & Serious Incidents at or in vicinity of OINE

None on SKYbrary